Location: Newark
(46.7000°N, 60.6000°W)
Time: 08:46:08
(UTC+00:00)

Transit 2A Rocket - Pass Details

Date: 29 October 2020
Orbit: 588 x 915 km, 66.7° (Epoch: 23 November)

Event Time Altitude Azimuth Distance (km) Brightness Sun altitude
Rises 22:03:31 0° 325° (NW) 3,303 8.7 -13.0°
Reaches altitude 10° 22:06:03 10° 324° (NW) 2,317 7.9 -13.4°
Maximum altitude 22:11:19 76° 240° (WSW) 742 5.0 -14.3°
Drops below altitude 10° 22:16:03 10° 155° (SSE) 2,090 7.1 -15.1°
Sets 22:18:15 0° 153° (SSE) 2,954 7.8 -15.5°
